Location: ??????
(36.0418°N, 43.6351°E)
Time: 05:32:02
(UTC+00:00)

Iridium 51 - Pass Details

Date: 07 March 2021
Orbit: 456 x 741 km, 86.4° (Epoch: 20 April)

Event Time Altitude Azimuth Distance (km) Brightness Sun altitude
Rises 02:07:32 0° 358° (N) 2,663 7.9 -17.0°
Reaches altitude 10° 02:09:44 10° 360° (N) 1,730 6.9 -16.6°
Maximum altitude 02:13:29 83° 88° (E) 492 4.1 -15.8°
Drops below altitude 10° 02:16:58 10° 177° (S) 1,617 6.7 -15.1°
Sets 02:18:58 0° 178° (S) 2,471 7.6 -14.7°
